Location: Allos
(44.2333°N, 6.6333°E)
Time: 04:20:05
(UTC+00:00)

USA 267 - Pass Details

Date: 01 December 2020
Orbit: 1100 x 1107 km, 123.0° (Epoch: 18 January)

Event Time Altitude Azimuth Distance (km) Brightness Sun altitude
Exits shadow 19:21:25 55° 310° (NW) 1,308 3.7 -36.1°
Drops below altitude 10° 19:26:20 10° 310° (NW) 2,966 6.0 -37.0°
Sets 19:28:49 0° 311° (NW) 3,928 6.8 -37.5°
